Theta_e
287 288 288 289 289 290 290 290 290 290 291 292 293 293 294 294 295 296 298 299 300 301 302 302 302 303 305 307 310 313 316 320 326 330 331 331 331 329 327 328 332 334 337 342 343 345 347 347 345 346 349 342 346 345 345 343 344 345 346 346 346 344 343 342 341 341 342 342 342 342 341 341 339 338 337 337 337 336 336 335 335 334 332 332 332
286 286 286 286 287 287 288 288 289 290 291 291 292 292 292 293 294 295 296 297 299 300 299 299 299 301 302 303 306 309 314 317 322 327 329 330 331 330 325 326 329 334 336 338 341 343 345 346 346 345 345 350 348 345 344 345 345 343 341 346 346 345 345 343 341 341 342 342 342 341 341 340 339 338 337 337 337 336 336 335 335 334 332 331 331
285 284 284 285 285 285 286 287 287 289 290 291 292 292 292 292 293 294 295 296 298 298 298 297 298 299 300 302 304 307 310 315 320 323 327 329 330 330 330 324 326 329 332 335 338 340 342 344 346 345 344 347 346 345 347 345 344 342 341 344 345 345 343 342 342 342 342 341 341 341 340 340 338 338 337 337 337 336 335 335 334 332 332 331 330
284 284 284 284 284 285 285 286 286 287 289 289 290 291 292 292 293 294 295 296 296 297 297 297 297 298 299 300 302 304 308 312 316 320 323 326 328 330 330 329 324 325 327 332 337 338 340 341 342 343 343 342 345 347 347 344 344 342 345 347 346 345 343 342 341 340 340 341 341 340 340 339 338 337 337 337 336 335 335 334 333 332 331 330 330
283 284 285 283 284 284 284 284 285 286 286 287 288 289 291 291 292 293 294 294 295 295 296 296 296 297 298 299 301 302 305 308 312 316 320 324 327 328 330 330 330 324 323 325 330 335 338 339 340 342 344 343 345 346 348 344 342 342 344 344 344 343 345 343 341 341 340 340 340 340 339 339 338 337 337 336 336 335 334 333 332 331 330 330 329
283 283 283 283 283 282 282 283 284 284 284 285 285 287 288 290 291 292 294 294 293 294 294 295 296 297 297 298 299 299 301 303 306 311 315 320 325 328 329 329 330 330 329 323 323 327 333 336 338 340 341 341 343 342 344 345 343 344 346 344 342 341 343 345 342 341 340 340 341 340 338 338 337 337 336 336 335 334 333 333 332 331 330 330 329
283 283 283 282 282 282 282 282 283 283 283 284 284 285 286 287 290 290 292 292 293 294 294 294 295 295 296 297 297 297 298 299 302 305 309 315 319 323 326 328 329 329 330 329 320 321 326 331 336 338 340 340 342 344 340 345 342 342 346 344 343 345 346 342 341 341 340 339 339 339 338 337 337 337 336 335 334 333 333 332 331 330 329 330 329
283 283 282 282 281 281 282 282 282 282 283 283 284 284 285 286 288 289 290 291 292 292 294 293 294 295 296 296 296 296 296 297 298 301 305 309 315 320 324 326 328 329 324 329 328 324 321 325 330 334 336 337 340 342 343 346 346 345 344 342 341 346 344 344 342 343 342 339 338 338 338 337 337 336 335 334 334 333 332 332 331 330 329 329 329
282 282 281 281 281 281 281 281 282 282 282 282 283 283 283 285 286 288 289 290 291 291 292 293 294 294 295 294 295 295 295 296 297 299 303 306 310 315 323 325 325 320 328 329 328 328 323 321 325 328 328 331 335 339 342 345 345 345 342 342 344 345 342 341 341 340 339 338 338 338 337 336 336 336 335 334 333 333 332 332 330 330 329 329 328
281 282 281 281 281 280 281 281 281 281 281 281 281 282 282 283 284 285 287 288 289 290 291 292 293 294 294 294 294 295 295 296 297 299 301 303 306 310 315 323 327 327 328 328 329 328 327 323 321 322 321 324 331 335 339 341 343 344 344 341 342 342 341 341 341 338 338 337 337 337 337 336 336 334 334 334 333 332 332 330 330 330 329 329 329
281 281 280 280 280 280 280 280 281 280 280 280 280 281 282 282 282 282 284 286 287 289 290 292 293 293 293 294 294 294 295 296 297 297 299 302 305 308 313 319 324 326 327 328 329 328 327 327 326 324 323 320 327 332 335 340 340 342 340 340 346 345 344 342 339 339 338 337 337 337 336 336 335 335 333 333 333 333 332 330 330 330 329 329 328
280 280 280 280 280 280 279 280 280 280 279 279 280 280 280 280 280 281 281 283 286 288 291 291 292 292 293 293 294 294 294 295 295 296 298 301 304 307 311 316 322 325 326 327 328 328 328 327 324 326 325 322 321 325 331 334 334 338 339 340 346 343 342 340 340 339 338 338 337 336 336 335 334 334 334 333 333 331 330 330 330 330 329 329 328
280 280 279 280 280 279 279 279 279 279 279 279 280 280 280 280 280 281 281 281 282 286 289 292 291 290 292 291 292 293 294 294 295 296 298 300 304 307 311 315 319 323 324 326 326 327 328 327 327 327 326 326 323 319 323 326 326 332 339 341 344 345 343 343 340 338 338 337 337 336 336 335 335 334 333 333 333 331 331 330 330 330 329 329 329
280 279 280 279 278 278 278 278 279 279 280 280 280 281 279 279 279 278 280 280 281 285 288 290 288 287 287 287 290 292 293 293 293 294 295 297 300 304 310 314 318 322 325 325 325 327 327 328 327 327 327 326 326 325 323 323 325 331 338 340 342 343 342 342 341 340 337 336 335 336 336 335 334 334 334 332 332 331 331 331 330 330 329 329 329
279 279 279 279 278 278 278 278 278 279 278 278 278 278 278 278 278 278 278 280 283 287 287 289 287 289 289 288 285 286 289 291 293 295 297 298 300 303 308 312 316 319 322 324 325 326 327 327 327 327 327 327 327 327 326 320 323 321 329 333 336 340 343 342 342 342 338 337 336 335 335 335 334 334 333 333 332 331 331 330 330 329 329 329 329
278 278 278 278 278 278 278 278 278 278 278 277 277 277 278 278 278 278 279 279 280 281 284 286 288 289 284 286 286 287 283 285 287 291 297 299 302 308 310 311 315 319 321 322 323 325 326 327 327 327 327 327 327 327 327 327 321 316 317 322 327 336 341 342 342 342 338 337 336 336 335 334 333 333 333 332 332 332 331 330 329 328 329 329 329
278 278 278 278 278 278 277 277 277 277 278 277 277 277 277 277 278 278 278 277 276 278 281 284 286 289 289 286 284 284 283 286 288 288 291 292 296 302 304 309 315 318 320 321 323 325 325 326 326 327 327 327 327 327 327 327 326 322 322 315 321 328 332 340 343 342 338 338 338 335 334 334 333 333 332 332 332 331 330 330 329 329 330 330 330
277 277 277 278 277 277 277 277 277 277 277 277 277 277 276 277 277 277 277 278 277 277 278 281 284 285 288 290 290 285 285 286 286 282 290 292 293 294 296 299 305 315 320 321 321 323 323 324 325 326 327 327 327 327 327 327 325 327 327 325 323 330 329 333 342 341 339 340 338 336 335 335 333 332 332 333 331 330 331 330 328 329 329 329 328
277 277 277 277 277 277 277 277 276 276 277 276 276 276 276 277 278 278 277 278 277 276 276 278 282 285 288 290 292 292 292 288 284 286 285 289 291 293 295 300 304 305 313 319 321 322 323 323 324 325 326 327 327 327 327 326 322 322 317 319 321 327 329 328 333 336 338 337 339 338 336 334 333 333 332 332 331 330 330 329 329 329 328 328 329
276 276 276 276 277 276 276 276 276 276 277 276 276 276 276 277 277 277 277 277 277 276 276 278 279 281 285 287 290 292 292 292 292 288 287 285 287 291 293 295 298 301 303 309 318 321 322 322 323 324 325 326 327 327 327 327 327 326 322 318 322 326 329 328 330 328 331 333 338 338 336 335 334 332 332 331 331 331 330 330 329 329 329 328 329
276 275 276 276 277 276 276 276 275 275 276 276 275 276 275 275 275 276 276 276 276 277 277 278 279 279 280 283 286 288 290 291 292 291 289 287 287 287 288 293 295 297 301 306 312 319 321 323 322 322 322 324 326 325 326 326 327 327 322 318 321 324 326 326 327 326 326 328 333 334 336 336 336 335 333 332 330 331 329 330 329 329 329 329 329
274 275 275 275 275 275 275 275 275 275 276 275 275 275 275 274 274 274 275 274 275 276 276 277 278 278 279 280 284 287 288 288 289 289 289 290 287 287 288 289 289 293 299 303 307 314 320 322 322 322 323 324 325 326 326 325 326 327 324 317 319 321 324 326 327 326 325 327 327 328 333 334 335 335 333 332 332 331 330 330 330 329 330 329 329
274 274 274 274 274 275 275 275 275 276 275 274 274 274 274 274 274 274 274 274 274 275 275 276 277 277 280 284 285 287 286 286 287 288 288 286 287 287 289 291 291 292 295 299 302 308 316 320 321 321 323 324 325 325 325 326 318 321 317 317 318 319 323 328 326 324 324 326 325 325 327 328 331 332 333 333 333 332 331 330 330 329 329 329 329
273 273 273 274 274 274 275 274 274 274 274 274 274 274 274 274 274 274 274 274 275 275 275 275 276 278 280 283 284 287 289 288 289 289 289 288 288 287 287 290 291 293 295 297 299 302 308 316 320 321 322 323 324 325 325 325 323 314 316 315 318 319 323 327 326 323 323 324 323 323 326 326 326 326 328 331 333 332 331 332 331 330 330 329 329
272 272 272 273 273 273 273 273 273 274 274 274 274 274 274 273 273 273 273 273 273 274 274 275 276 278 279 282 284 286 288 290 291 290 291 290 289 287 288 290 289 290 293 295 296 300 306 313 319 320 321 322 323 323 324 324 324 314 312 312 314 317 318 322 323 323 322 322 321 322 324 325 324 326 329 330 331 332 331 331 330 331 332 330 330
271 271 272 273 273 273 274 273 274 274 274 274 273 274 274 273 273 272 272 273 273 273 274 275 277 278 279 279 281 284 287 290 291 291 290 289 288 288 287 288 290 289 292 293 296 297 301 311 318 320 320 321 323 324 324 324 324 311 308 317 314 314 317 321 324 322 321 321 321 320 319 320 323 324 326 330 330 331 331 330 331 331 331 331 331
271 272 273 273 273 273 273 273 273 273 273 273 274 273 273 273 272 272 272 272 273 273 274 276 277 278 278 279 279 283 287 290 291 290 291 290 289 289 288 286 287 289 289 292 293 296 298 307 316 318 320 320 321 322 323 323 318 309 305 319 319 311 314 319 322 321 320 321 319 319 318 319 321 323 324 324 327 327 330 330 329 330 330 330 330
271 272 272 273 272 272 273 273 273 273 273 273 273 272 272 272 271 271 271 273 272 272 273 275 276 277 278 280 281 283 287 289 290 291 291 291 291 291 290 289 286 284 288 288 291 293 300 303 311 316 318 319 321 321 316 318 322 306 304 320 320 315 313 316 319 320 321 320 318 318 317 318 319 320 321 321 321 321 322 323 324 323 323 324 324
272 272 272 272 272 272 272 273 273 273 273 272 272 272 272 271 271 271 271 271 272 272 274 274 275 275 276 278 280 283 286 289 290 291 291 291 291 292 293 291 290 287 285 286 288 291 296 306 307 311 316 318 319 321 320 320 314 308 316 320 319 318 312 315 317 319 320 319 318 318 317 317 318 318 318 319 319 320 321 322 322 322 323 323 325
272 272 272 272 272 273 272 272 272 272 272 272 272 272 271 271 271 271 271 271 271 272 272 273 273 274 275 277 279 282 286 288 290 291 291 291 291 292 293 293 293 290 289 287 287 292 294 301 309 309 311 315 318 319 320 319 309 309 318 321 319 319 310 312 315 316 317 316 317 319 318 317 317 317 317 317 318 319 321 320 320 321 322 323 326
271 271 271 271 271 272 272 272 272 272 272 272 272 271 271 270 270 270 271 271 271 271 272 273 274 275 276 278 280 283 286 288 290 291 291 290 291 292 293 294 293 293 291 290 287 291 296 296 303 308 311 313 315 316 317 318 309 311 319 320 320 311 307 311 312 314 315 315 316 316 316 317 316 316 316 316 318 319 320 320 319 320 322 323 325
271 271 271 271 271 271 271 271 271 272 271 271 271 271 270 270 270 270 270 271 270 270 271 273 274 275 276 276 278 280 284 288 289 290 290 291 291 292 292 293 293 294 293 292 290 289 294 296 299 305 311 313 313 313 313 315 309 306 320 319 317 305 313 315 310 312 312 314 315 315 315 315 316 316 315 315 318 318 318 318 319 320 321 322 323
270 270 270 270 271 271 271 271 271 270 270 270 270 270 269 269 270 270 270 270 270 271 271 272 275 276 276 276 277 279 282 285 288 290 290 290 291 292 293 293 293 294 293 292 290 290 293 297 299 302 309 313 311 313 311 310 310 313 313 318 313 314 316 316 315 308 310 312 313 314 314 315 315 315 315 314 315 317 317 319 319 318 319 321 322
270 270 270 270 270 270 270 269 269 269 269 269 269 269 269 269 269 270 270 271 271 271 271 271 273 274 275 276 278 281 283 285 287 289 289 289 290 291 292 292 293 293 295 293 292 291 291 295 298 303 308 313 310 312 310 309 310 310 313 316 315 316 316 316 315 314 309 311 313 313 314 314 314 315 314 314 316 317 317 318 317 316 317 319 319
270 270 270 269 269 269 269 269 268 268 268 269 269 269 269 269 269 269 270 271 271 271 271 271 271 272 274 277 279 281 285 287 288 289 289 288 289 289 290 292 293 294 295 295 294 292 292 294 298 301 306 310 310 309 310 311 310 311 308 310 313 315 316 316 316 315 309 311 313 313 313 313 314 314 313 314 314 314 315 316 315 314 315 317 317
268 269 269 269 268 268 268 268 268 268 268 268 268 268 268 268 268 269 269 269 270 271 272 272 272 273 274 276 278 280 283 285 287 288 289 288 288 288 289 290 292 293 294 295 296 295 294 294 296 300 306 308 310 311 311 311 310 310 310 311 313 313 314 315 315 314 311 311 311 312 312 313 313 313 313 313 313 314 314 315 314 314 314 314 315
267 267 267 268 268 267 267 267 267 267 267 267 267 267 268 268 269 269 269 269 269 270 270 271 274 274 275 276 277 279 281 284 287 287 287 287 288 288 288 290 291 293 294 295 295 295 295 295 296 301 306 309 309 310 310 309 308 309 309 310 311 312 311 312 314 313 308 309 309 310 310 311 312 312 312 313 313 313 314 314 313 312 312 313 312
266 267 267 267 267 267 267 267 267 267 267 267 267 267 268 268 268 269 269 269 269 269 270 271 272 273 273 274 275 277 279 282 285 287 287 287 287 287 288 289 290 292 293 294 295 295 295 296 297 299 303 306 304 305 308 310 307 305 306 307 309 311 309 309 311 311 312 313 313 312 309 309 309 311 312 312 313 312 313 313 312 311 309 309 310
265 265 265 265 266 266 266 266 266 266 267 267 267 267 268 268 268 269 269 269 269 270 270 271 271 271 272 273 274 276 278 280 284 286 287 286 287 287 287 288 289 290 290 292 293 293 294 295 297 300 300 300 305 303 306 309 308 307 305 304 303 306 308 308 307 309 311 313 310 309 311 311 309 311 310 310 311 311 311 311 311 310 308 308 309
264 264 264 265 265 266 266 266 266 266 267 267 267 268 268 268 268 269 269 269 269 269 270 270 271 271 272 273 274 275 277 280 283 286 287 286 286 286 287 287 288 288 288 290 291 292 293 294 296 299 302 301 300 304 305 305 305 305 307 306 303 303 305 306 307 308 309 310 310 311 308 308 308 309 308 309 309 310 310 309 308 307 305 307 308
264 264 265 265 265 265 266 266 266 267 267 267 268 268 268 268 269 269 269 269 269 269 270 271 271 272 272 273 274 275 278 280 283 286 287 288 286 285 285 286 286 286 286 286 288 291 292 294 296 299 301 301 301 300 301 302 303 303 304 306 304 305 306 305 305 308 308 308 308 309 309 311 310 310 311 311 311 309 308 307 307 303 304 307 309
264 264 264 265 265 265 265 266 266 267 267 268 270 273 274 271 271 271 271 271 270 271 271 272 273 273 273 274 275 278 280 281 282 285 287 288 288 287 286 285 285 285 285 285 286 288 291 293 296 297 298 300 300 301 301 302 305 305 304 303 302 303 304 303 304 305 307 307 306 307 308 309 310 310 311 309 310 308 311 311 311 308 305 307 308
263 264 265 265 265 266 266 266 266 267 267 268 272 275 276 277 274 273 273 273 273 272 272 272 272 274 276 276 276 278 280 282 285 286 287 288 288 288 288 288 287 285 285 285 286 287 288 292 297 297 298 299 301 302 303 303 303 304 304 303 302 302 301 300 299 298 302 308 306 306 305 305 309 309 310 309 308 309 310 310 307 305 305 308 308
263 264 265 265 266 266 265 266 266 266 267 271 274 275 276 277 277 275 274 274 274 273 273 273 273 273 274 276 278 279 279 281 283 284 286 287 288 288 288 288 288 288 288 286 285 286 287 289 294 297 298 299 301 302 302 302 302 303 304 303 302 302 301 300 300 300 303 306 305 304 303 300 306 309 308 309 308 308 310 309 306 305 306 308 307
264 264 264 264 264 265 265 264 265 266 266 271 274 275 276 277 278 277 275 275 274 274 274 274 273 274 274 275 276 278 279 281 282 284 285 285 286 287 288 287 287 287 288 288 289 287 289 288 292 296 299 300 300 301 302 303 304 302 302 302 302 302 302 301 301 303 303 306 304 302 302 299 302 304 306 308 306 307 308 306 305 305 306 306 307
263 263 263 263 264 264 264 264 264 265 266 270 274 276 277 278 279 279 276 276 275 274 274 274 274 274 275 275 276 277 279 280 281 282 284 285 285 285 285 285 286 286 287 288 289 290 290 290 291 294 299 301 301 302 302 303 303 301 301 301 301 301 300 301 302 303 304 307 304 302 300 296 295 305 304 301 300 304 305 307 305 305 306 306 306
262 262 262 262 262 263 263 264 264 265 266 272 274 276 277 278 279 279 277 276 276 275 275 275 275 275 275 276 277 278 279 280 280 282 283 285 285 285 285 285 285 286 286 287 290 292 292 293 294 297 300 302 304 304 304 305 305 305 303 301 301 301 298 294 295 297 300 304 304 302 298 296 293 302 301 296 297 301 301 304 304 305 305 305 306
262 263 262 262 262 262 263 263 264 264 266 273 274 276 277 278 280 278 277 276 275 275 275 275 275 275 276 276 277 278 279 279 281 283 284 284 284 284 284 284 285 286 286 288 290 292 294 296 297 299 302 302 302 303 301 305 305 301 298 295 296 296 298 299 296 297 299 299 300 302 299 295 294 302 298 295 297 299 298 302 303 305 305 305 305
261 261 261 261 262 262 262 263 264 264 266 270 274 276 277 279 279 277 277 276 275 275 275 275 276 276 276 276 277 278 280 280 282 284 285 285 283 284 284 284 285 285 286 288 290 292 294 295 296 298 300 301 302 302 302 302 299 298 299 298 297 300 299 296 295 297 298 298 294 300 298 294 293 298 294 294 297 298 298 300 301 304 305 305 305
260 260 261 261 262 262 263 263 265 265 267 270 274 276 277 278 278 275 276 275 274 274 275 275 275 276 277 279 279 278 278 278 281 283 285 285 283 284 284 284 284 284 285 287 289 293 294 295 295 296 298 300 300 300 301 300 299 299 301 299 299 301 299 297 295 297 298 298 296 294 297 294 291 294 293 291 292 292 297 295 297 299 303 304 304
260 260 261 261 262 263 264 265 268 268 267 269 274 275 277 278 276 275 276 276 274 274 275 275 275 276 276 277 279 280 281 281 283 284 284 284 283 284 284 284 284 284 285 287 288 290 293 293 294 296 296 297 299 300 298 298 298 299 304 301 301 301 299 297 297 296 295 296 297 295 298 292 292 293 295 293 294 289 287 293 294 298 301 303 305
Wind_Speed
8 8 8 8 9 9 8 8 7 8 10 9 8 9 9 9 8 8 7 8 8 9 9 9 8 9 10 11 11 11 11 12 12 11 10 10 10 13 19 21 22 24 24 27 31 30 29 29 30 32 30 33 28 27 26 30 27 26 29 29 29 29 30 26 25 28 27 26 26 26 26 27 26 25 27 26 25 25 25 25 24 23 22 22 22
7 8 8 9 8 8 8 8 8 8 7 9 9 9 9 9 9 9 9 9 8 8 8 9 10 9 9 11 11 10 11 11 12 12 12 12 12 13 19 21 22 25 25 26 29 32 30 29 30 31 31 27 28 31 31 28 29 28 31 31 26 28 26 27 25 28 27 27 27 27 27 27 25 25 25 25 25 25 26 25 24 24 22 22 21
6 7 6 7 7 8 8 8 8 7 8 8 7 8 10 10 10 9 9 10 10 8 8 9 9 10 9 10 11 11 11 11 11 12 13 13 12 13 15 21 23 24 26 26 28 29 32 31 31 31 28 32 31 33 31 31 30 29 31 30 29 31 31 28 28 27 28 28 27 27 25 25 25 25 25 25 24 24 25 25 23 22 22 22 22
5 6 6 6 6 7 7 8 8 8 8 9 10 9 9 9 11 11 10 9 10 9 8 9 10 9 9 11 11 11 12 11 12 13 13 13 13 12 12 14 21 24 25 28 28 30 29 30 31 32 27 31 30 31 32 32 33 28 28 26 29 32 32 31 28 29 28 27 27 27 27 26 26 25 25 25 26 25 24 23 23 22 23 23 23
5 6 6 6 6 8 8 7 8 9 10 12 13 10 9 9 9 9 10 10 11 9 8 9 10 10 9 10 10 11 11 12 12 13 13 13 14 13 13 14 14 20 25 26 27 27 31 30 30 32 30 28 32 31 30 30 32 32 29 29 30 31 37 35 28 28 32 30 28 27 26 27 27 26 26 26 25 23 23 23 23 23 24 23 23
5 5 5 6 7 7 7 7 6 8 10 10 10 10 10 10 10 10 9 9 11 11 10 10 10 9 10 9 9 10 10 12 12 13 13 13 12 13 13 13 13 13 14 23 26 26 27 29 31 31 32 32 31 31 32 30 33 34 30 33 32 34 37 34 35 33 31 28 28 28 28 27 27 26 26 25 24 24 23 23 24 24 24 23 23
5 5 6 6 7 7 7 7 8 9 9 9 10 10 10 11 10 11 11 10 10 10 11 12 12 11 10 10 10 10 10 12 13 14 14 14 13 14 14 14 13 13 14 13 18 26 27 27 31 32 31 31 31 27 31 30 34 34 31 32 33 32 34 32 34 33 33 32 29 29 28 28 26 26 26 25 25 27 25 25 25 25 25 24 25
5 5 6 6 6 7 7 7 8 7 7 8 8 10 10 11 10 10 12 13 11 13 10 12 12 13 11 10 11 10 10 11 13 13 14 13 14 14 14 15 15 14 14 14 13 14 24 26 28 30 32 29 31 31 30 30 29 32 31 32 34 32 34 33 34 35 31 31 30 29 29 27 27 28 27 26 28 27 26 26 25 26 26 26 25
4 5 5 6 7 7 8 9 8 8 8 8 8 8 10 10 10 10 10 13 13 14 13 11 12 13 13 12 11 11 11 11 12 13 13 14 15 16 15 16 16 17 14 14 14 13 18 24 27 29 29 28 30 31 29 32 33 31 32 38 34 32 34 35 36 35 34 30 30 26 28 29 28 28 28 27 28 26 26 27 27 26 26 26 26
4 5 6 7 7 8 8 9 9 9 9 9 9 8 9 9 11 10 10 11 12 13 15 12 12 13 13 14 14 12 12 13 12 12 13 15 16 16 16 15 14 15 15 15 15 14 13 17 24 27 28 27 29 31 28 29 33 31 32 35 34 32 32 35 32 32 32 31 31 30 30 28 28 31 28 28 28 27 27 28 28 26 27 27 26
6 7 7 8 8 8 8 10 9 9 9 9 8 8 8 8 11 13 11 10 12 12 13 14 14 14 14 16 14 15 13 13 12 12 14 15 16 17 15 16 15 15 16 16 15 15 15 13 11 12 17 27 28 27 30 32 30 29 30 35 34 35 36 38 34 33 28 30 30 30 30 29 29 30 31 29 29 28 28 27 27 27 27 29 28
6 6 7 7 7 8 8 8 8 8 9 9 8 7 9 11 12 12 16 12 12 11 11 13 14 16 17 16 15 15 16 14 15 15 14 14 15 14 15 15 16 16 16 16 15 15 15 14 12 12 12 17 25 27 29 28 26 30 30 35 33 33 33 35 35 34 32 31 32 32 30 29 32 32 30 29 28 30 29 28 28 28 28 28 27
6 7 7 7 7 7 8 8 8 8 8 8 8 9 10 9 10 11 14 14 12 10 10 11 13 14 13 15 15 14 15 15 16 15 15 14 14 15 15 15 16 16 15 15 17 16 15 15 13 13 13 11 14 24 28 28 24 24 26 33 33 35 36 33 39 35 34 34 33 32 33 31 32 32 31 30 30 29 30 30 29 29 30 28 26
7 7 7 7 8 7 8 8 8 8 9 9 10 10 11 9 8 11 10 13 13 10 8 8 11 13 13 12 13 13 13 15 16 17 17 16 16 16 15 16 17 16 15 16 17 17 16 14 13 14 13 12 12 11 16 21 22 29 32 33 34 36 36 35 42 39 33 37 34 36 38 35 34 33 32 33 32 31 31 30 31 30 28 28 28
5 6 6 6 7 9 9 9 9 9 11 12 10 11 10 10 9 10 13 11 12 9 10 9 13 12 13 14 14 13 11 10 9 12 13 15 14 16 16 17 19 17 15 14 15 16 15 14 14 14 14 14 13 12 12 15 19 25 30 32 29 31 34 35 40 39 33 32 31 32 31 33 33 34 33 33 33 32 32 32 31 29 29 30 30
6 6 6 7 8 8 8 8 9 8 9 11 11 12 9 9 9 11 12 13 10 10 10 11 13 11 12 10 11 10 14 13 9 7 7 10 12 12 13 15 17 18 15 16 16 14 15 14 16 15 15 15 13 13 12 12 19 23 27 28 28 30 35 38 43 40 38 38 35 35 34 33 36 36 35 34 33 32 32 32 30 31 30 30 30
6 6 6 8 7 8 8 9 9 8 8 10 11 11 12 10 12 11 10 10 15 12 11 11 13 13 14 11 11 12 13 13 9 14 8 10 11 11 11 14 16 17 15 16 16 16 15 16 15 15 15 15 15 14 13 13 13 15 19 26 28 28 27 37 46 41 40 39 37 36 35 35 36 36 37 36 34 33 33 33 31 30 29 31 30
7 8 8 7 8 8 8 10 9 9 7 8 10 12 12 13 10 10 12 10 13 13 15 11 11 16 17 16 14 13 12 7 9 15 10 7 12 13 15 16 14 15 15 15 17 16 15 15 16 15 15 14 14 15 14 14 14 13 13 17 31 29 26 30 44 42 42 41 39 39 37 37 37 40 36 34 34 34 32 30 30 29 30 30 30
8 7 8 8 8 8 9 9 9 8 9 10 11 11 12 10 9 9 11 11 11 12 14 12 12 15 15 16 19 18 16 12 11 10 16 13 8 9 12 12 11 13 15 16 17 16 16 15 16 16 15 15 15 14 14 14 18 17 19 20 26 29 29 30 42 40 43 42 43 43 42 40 37 37 36 36 36 35 34 34 31 31 32 30 31
8 7 8 8 8 9 9 10 9 10 8 11 11 13 11 11 11 13 11 10 10 12 13 13 12 14 11 14 15 15 16 17 16 14 14 16 20 11 10 14 12 11 11 14 16 18 17 16 16 16 14 14 16 16 14 14 15 17 17 24 25 28 29 30 34 38 40 40 41 44 42 45 43 41 38 39 37 36 37 34 32 33 33 35 32
7 8 8 8 9 10 10 10 10 10 10 10 12 11 14 13 13 10 11 10 11 12 12 13 9 13 9 14 14 14 15 14 14 12 12 13 16 17 17 15 12 12 11 11 14 16 18 16 16 17 15 15 14 13 16 16 15 15 17 26 27 28 29 33 34 33 38 38 38 40 44 42 41 40 39 38 37 36 38 35 35 34 33 33 32
7 6 7 7 8 9 10 10 11 11 10 12 11 12 12 12 13 13 13 13 11 12 14 12 12 14 13 14 14 13 13 12 12 12 11 11 15 15 13 14 18 16 11 11 13 15 17 16 16 17 17 16 16 16 13 12 12 13 17 26 28 28 29 33 38 40 39 38 36 37 40 43 42 40 41 40 39 38 37 36 36 35 33 33 34
8 8 6 8 8 9 10 10 10 11 12 10 12 11 11 11 12 14 15 15 11 13 16 16 14 16 16 13 13 12 14 14 11 9 9 9 10 13 13 11 15 18 18 12 13 15 15 16 16 15 17 16 15 16 16 16 18 18 23 25 29 29 31 33 36 31 37 42 40 39 39 41 39 40 42 41 40 41 39 38 36 36 35 35 35
9 7 9 7 8 9 9 11 11 10 11 11 10 11 10 11 10 12 11 13 13 14 14 15 17 14 14 11 14 14 14 15 13 12 10 11 10 14 12 11 13 14 14 15 13 15 17 18 17 15 12 12 14 15 15 16 17 24 21 26 28 31 32 36 35 37 37 37 40 40 39 38 37 37 39 42 41 41 42 39 38 37 36 35 34
9 10 10 10 9 10 9 9 10 9 12 11 11 11 11 10 12 13 11 15 11 13 13 13 17 13 12 11 12 13 14 13 12 12 11 10 10 14 12 10 14 15 13 11 11 10 14 17 17 15 15 14 13 12 13 13 12 19 23 18 29 30 33 34 34 40 45 44 42 41 41 41 38 36 37 36 39 42 41 39 39 38 37 37 36
12 11 10 10 11 10 11 11 11 12 11 12 11 10 11 10 12 12 14 12 13 15 15 18 15 15 11 12 15 15 15 13 13 13 13 11 11 13 12 10 11 15 12 10 11 11 14 14 16 16 16 16 15 15 14 15 15 18 23 18 23 29 31 32 32 27 35 47 45 42 41 41 39 39 38 38 39 39 38 39 39 38 38 37 37
12 12 11 12 13 11 11 12 13 13 12 11 13 13 12 13 11 14 12 11 13 15 14 14 14 14 15 16 17 17 17 13 14 12 12 12 11 11 9 13 13 12 14 11 13 14 15 14 14 16 16 15 14 15 16 16 17 21 22 18 16 28 27 30 27 32 27 32 42 44 41 40 39 38 38 38 37 36 38 39 39 38 37 37 37
11 12 12 13 13 14 14 14 13 12 12 12 11 11 10 11 13 11 15 10 13 16 15 15 17 15 16 16 13 15 13 14 15 12 12 11 10 10 10 12 16 17 11 13 11 13 15 15 13 15 14 15 15 14 17 20 16 21 23 15 14 18 25 24 25 29 37 33 31 34 37 39 39 36 37 37 35 33 34 33 33 32 32 32 30
11 11 14 12 11 13 14 15 14 12 14 13 12 12 11 12 12 14 14 11 14 14 14 13 14 14 12 15 15 13 14 14 16 13 12 11 11 11 11 14 12 15 13 11 14 11 14 14 14 11 15 14 14 14 15 15 16 19 17 17 15 15 23 28 28 28 23 28 33 40 38 35 35 35 36 35 33 33 32 32 31 30 29 28 29
11 12 13 13 15 15 13 14 14 13 12 12 12 11 12 12 13 13 14 12 15 13 14 14 14 14 14 15 15 17 14 15 15 14 11 11 11 11 12 12 13 14 12 13 16 11 11 13 11 10 12 14 14 14 15 16 20 24 18 17 16 17 27 29 29 27 27 26 21 24 32 35 36 36 36 34 32 31 31 31 30 28 28 29 28
12 13 12 13 14 11 13 13 12 14 15 12 12 12 10 13 13 14 12 12 13 14 14 12 13 11 15 15 14 13 15 16 15 14 12 11 11 11 12 12 13 13 14 11 14 16 8 13 13 10 11 15 13 14 14 16 20 25 19 16 18 23 30 29 34 34 30 30 28 24 22 28 32 33 34 33 33 32 30 30 29 27 27 27 29
12 12 12 14 14 15 13 15 17 15 19 15 14 14 13 13 14 15 15 14 15 16 14 13 12 14 15 17 16 17 15 14 14 13 12 11 11 10 12 13 13 14 13 12 14 20 14 10 14 14 12 14 14 13 13 13 20 29 19 17 20 27 24 22 32 35 35 33 31 26 24 24 26 28 29 29 30 29 28 28 28 27 27 27 27
12 11 14 14 15 16 17 16 18 18 16 20 14 16 16 17 15 15 17 16 18 17 17 18 14 11 13 15 17 18 18 17 14 12 11 11 10 10 11 12 13 13 12 12 15 17 18 11 10 13 14 12 13 16 15 13 15 19 21 18 20 22 20 20 25 35 35 35 33 31 28 25 24 25 26 26 27 28 28 28 27 28 28 27 27
9 13 13 14 15 15 17 15 20 19 16 19 18 17 17 18 18 15 15 17 18 18 16 17 14 14 14 18 18 18 18 18 17 14 11 9 9 9 11 12 12 13 12 13 14 14 19 14 12 13 14 16 14 15 17 15 16 13 14 20 22 23 19 19 21 25 37 35 34 33 32 30 28 26 26 26 26 27 27 28 27 27 26 26 26
12 12 15 14 16 17 18 20 19 19 19 19 16 18 18 18 19 18 17 18 18 17 17 17 16 15 18 17 16 14 13 16 16 13 11 10 8 10 11 11 13 13 12 14 13 14 16 17 13 13 14 15 15 14 15 17 17 15 11 11 22 19 21 21 21 21 35 35 36 33 31 31 30 30 29 28 27 27 28 27 26 26 26 25 25
14 13 13 17 16 17 20 17 20 20 19 19 20 17 19 19 19 19 18 18 17 18 18 16 16 16 17 16 14 14 15 16 15 12 10 8 8 9 10 11 13 14 13 13 15 13 12 15 14 13 15 14 12 15 15 17 17 15 16 14 17 18 20 22 22 21 29 38 36 34 32 31 30 30 30 29 28 28 28 28 26 26 26 26 26
12 14 16 13 16 18 16 20 19 20 19 19 20 20 18 18 19 19 19 18 18 18 19 18 18 15 14 13 13 13 15 16 13 11 9 9 9 9 10 10 11 11 12 13 13 13 13 14 14 13 15 14 10 14 16 16 14 14 15 17 16 17 13 16 17 21 33 36 36 35 32 30 28 27 27 27 27 27 27 27 27 25 24 24 23
17 14 12 16 16 19 19 18 20 22 20 20 20 20 19 18 18 18 18 18 19 19 18 18 18 16 14 15 15 14 15 16 13 10 9 10 9 10 11 9 10 10 12 13 12 12 13 14 14 14 14 15 9 10 15 19 17 14 14 15 16 20 16 14 14 15 17 19 19 23 26 26 27 28 27 26 26 26 26 26 25 25 25 24 24
13 15 18 17 19 17 17 20 21 20 22 20 19 19 19 19 18 19 18 18 18 17 17 16 16 17 18 18 18 16 15 16 15 11 10 10 9 10 10 9 9 9 11 11 9 11 12 12 13 16 13 9 16 14 14 17 22 19 18 15 10 14 16 16 16 13 15 18 20 26 24 23 27 24 27 27 25 25 25 24 24 25 24 24 24
16 18 15 17 16 16 20 19 20 20 19 19 19 18 17 17 18 18 18 18 17 18 18 17 17 16 16 17 18 18 17 16 15 12 11 10 8 9 8 8 8 8 9 9 10 10 10 11 14 15 13 10 7 13 13 12 19 19 20 20 17 15 16 14 16 18 15 16 16 15 17 18 18 21 25 25 25 25 25 24 25 24 25 25 24
14 14 18 19 21 22 18 18 20 18 17 17 14 14 16 17 16 17 17 18 16 16 17 17 17 16 15 16 16 17 18 22 26 21 15 12 9 9 9 7 8 8 9 9 10 9 9 11 15 15 14 16 13 11 14 15 20 19 15 18 19 19 19 17 14 13 16 18 15 15 16 17 16 16 16 16 18 23 22 24 22 26 25 26 27
15 17 16 16 19 18 20 21 18 17 16 13 18 28 26 19 18 17 15 16 15 15 15 16 17 16 16 15 15 23 25 25 26 26 25 22 20 13 10 8 9 9 9 9 9 9 10 12 15 14 13 18 16 15 15 14 18 22 21 17 19 16 15 14 13 11 13 14 14 15 13 12 14 13 13 13 14 19 14 16 15 18 23 25 26
15 15 17 20 17 17 19 18 19 17 17 16 27 27 29 31 24 19 18 16 16 15 15 16 16 16 14 13 14 18 20 21 18 22 22 23 21 21 21 19 13 11 10 11 11 9 9 12 13 14 14 18 18 17 17 15 12 22 19 17 16 18 19 19 16 7 8 18 17 16 13 11 14 15 14 13 14 14 15 13 22 24 26 26 26
15 14 16 16 17 17 16 18 18 18 17 24 30 30 30 30 27 20 17 15 14 13 13 14 15 15 16 15 13 11 12 14 14 13 15 18 20 21 22 22 21 20 19 14 12 10 10 12 12 14 14 18 19 17 14 13 14 16 17 18 19 19 19 18 18 18 14 17 16 15 13 8 11 14 14 13 12 12 15 17 22 26 27 27 27
14 16 17 18 18 17 17 19 19 19 18 25 30 31 30 30 30 25 16 16 14 14 13 15 15 15 14 14 15 12 10 18 16 12 11 11 16 20 21 21 21 21 21 23 22 17 11 11 13 13 16 17 20 17 17 17 16 19 17 17 17 18 19 20 18 17 17 18 17 16 16 10 11 14 14 12 11 11 13 20 24 25 26 26 27
15 15 16 18 17 17 17 18 18 19 20 25 31 31 30 30 30 26 14 15 15 15 16 15 14 15 15 15 14 13 11 11 11 12 11 11 11 10 11 11 11 12 15 20 24 26 20 14 14 13 14 16 20 18 19 19 21 20 21 21 21 19 19 19 16 17 18 20 20 17 14 9 5 12 13 8 9 10 10 17 25 26 26 27 29
15 15 16 17 17 17 18 18 18 19 18 30 31 33 31 31 30 27 14 11 13 13 14 13 13 15 16 16 16 15 12 11 11 13 13 11 10 10 11 11 11 11 11 11 13 13 13 13 16 16 13 14 19 21 19 19 24 23 25 27 26 22 15 11 11 10 11 13 17 15 17 11 5 12 11 7 7 10 8 15 23 26 27 26 27
13 13 13 13 16 17 16 16 16 18 19 30 31 31 31 29 31 18 11 10 13 12 13 14 13 13 15 16 16 16 15 14 16 22 20 13 11 12 12 12 12 12 12 13 18 18 14 12 13 15 13 15 16 20 20 20 18 13 10 10 12 16 18 17 15 14 15 10 13 18 14 11 7 14 9 6 8 10 8 9 20 27 28 28 28
14 13 14 14 14 15 17 16 17 17 18 25 31 32 30 30 24 14 13 9 9 12 13 12 13 14 14 15 15 14 12 11 14 20 22 21 13 14 13 13 13 12 12 11 15 20 21 24 24 22 23 21 23 25 29 27 18 18 17 17 17 18 19 18 14 15 16 13 5 10 12 13 7 10 9 6 9 10 10 10 10 22 29 29 29
14 14 14 14 14 14 16 17 17 17 18 25 33 30 29 29 26 17 14 8 8 10 11 12 11 13 15 23 20 16 17 16 18 21 21 17 13 14 13 14 14 13 13 10 10 12 18 23 24 21 22 21 19 20 24 25 26 25 24 23 21 19 20 19 17 16 14 13 9 8 13 11 7 7 10 4 4 2 7 5 7 9 19 24 27
13 12 12 13 14 13 14 16 24 23 18 22 27 26 29 30 24 15 14 10 7 8 9 10 11 13 14 16 23 19 15 15 21 21 24 20 14 13 13 13 13 13 12 8 10 12 9 9 12 12 14 18 18 14 13 23 28 25 25 25 20 21 21 19 18 16 14 12 13 13 16 11 12 8 14 9 7 0 1 6 5 10 10 11 16
Wind_Direction
338 338 337 335 332 330 326 322 321 319 323 319 317 314 313 313 312 306 302 299 300 303 303 302 302 301 300 299 295 292 287 286 283 274 262 251 246 246 240 241 244 247 246 244 244 246 246 245 243 240 228 230 226 227 224 226 224 221 214 207 201 200 198 191 189 184 180 177 174 175 176 171 168 167 169 170 167 165 164 164 162 162 162 158 159
344 340 338 331 329 325 323 322 320 315 314 314 316 314 309 310 308 307 305 300 295 292 297 297 299 297 297 295 294 292 286 283 281 276 265 254 249 248 242 240 241 246 244 244 243 242 247 246 244 244 237 222 228 228 225 224 221 218 219 206 199 200 190 190 185 185 182 179 176 174 175 171 168 167 170 169 168 165 164 164 163 163 161 162 163
338 329 323 321 322 324 325 322 319 319 315 308 306 305 309 307 305 301 301 301 296 293 290 289 290 294 293 291 293 294 289 284 280 275 269 259 249 245 243 240 241 243 245 244 242 243 243 246 248 244 239 234 220 226 226 225 223 220 219 212 206 199 193 188 182 181 183 181 177 174 173 168 168 169 170 167 167 167 166 165 164 165 163 165 165
326 324 320 318 317 322 322 326 324 322 323 319 315 307 299 295 299 302 295 291 290 290 287 286 283 283 289 289 292 290 290 291 286 280 274 267 255 248 244 243 240 241 243 245 243 241 239 242 248 250 238 242 231 221 227 227 225 222 218 213 206 201 193 191 187 184 181 179 178 175 172 167 168 171 169 166 166 168 167 163 164 166 166 169 165
324 320 318 316 322 326 325 324 322 327 327 320 314 309 304 302 295 290 295 298 291 286 281 277 282 280 279 282 288 287 289 290 287 285 278 272 267 256 245 242 242 240 239 242 243 241 240 238 242 247 246 237 243 223 219 229 225 223 218 221 216 208 200 192 185 181 182 180 179 176 172 169 169 171 169 167 165 166 164 163 165 168 169 169 168
321 318 321 325 322 315 314 315 321 324 321 319 317 316 310 308 306 302 292 289 291 293 291 283 276 278 276 277 278 283 289 286 283 283 284 278 271 260 250 243 240 240 241 239 240 241 239 237 238 244 246 245 241 235 226 224 231 225 215 217 214 208 202 191 187 186 183 180 177 172 170 169 170 171 169 167 164 164 165 165 167 169 167 167 169
317 320 324 322 317 315 316 320 324 325 322 322 316 313 309 306 309 306 300 293 287 282 285 286 285 279 276 278 276 278 282 281 282 281 279 279 271 267 259 249 240 239 239 240 238 237 236 235 237 239 244 244 244 238 228 223 230 228 222 224 215 210 193 193 187 183 183 180 178 172 170 168 168 170 170 168 166 166 166 168 170 169 166 168 170
317 323 318 316 316 313 312 313 316 315 312 311 316 315 316 311 308 307 305 299 296 290 284 281 283 284 278 272 274 274 275 278 280 279 278 277 275 267 259 251 242 238 235 238 240 237 230 231 233 236 240 243 244 243 232 226 224 227 222 223 220 210 203 191 188 184 182 182 174 173 168 168 169 169 170 170 170 168 168 171 170 170 170 170 170
314 318 321 319 320 318 316 318 322 322 319 317 314 315 310 306 302 302 299 298 298 293 290 285 282 279 282 275 270 274 271 272 276 278 278 274 275 272 265 250 243 235 235 236 238 239 232 223 228 232 236 237 242 244 235 228 226 226 227 224 216 214 206 194 190 185 182 178 175 171 168 168 170 167 169 170 169 168 171 171 169 169 171 171 171
321 327 325 322 321 320 319 320 321 320 315 313 309 309 306 308 308 308 305 300 296 295 293 289 284 282 278 276 275 270 270 270 270 273 272 271 269 268 263 262 251 241 234 232 234 234 235 227 223 228 232 233 236 239 241 230 227 226 224 225 220 217 211 196 188 185 180 179 174 169 169 170 169 170 170 170 171 170 171 172 170 168 173 173 172
336 336 332 326 321 319 318 319 317 310 304 301 300 301 305 312 310 305 295 286 290 289 290 290 286 280 275 273 274 272 270 267 268 267 268 265 263 262 264 257 252 244 237 231 231 232 230 229 223 223 230 229 230 233 237 237 228 226 225 224 215 214 204 192 187 182 176 173 175 173 168 166 167 170 173 173 173 172 172 172 172 173 175 176 174
330 330 324 318 315 311 309 305 298 294 293 294 294 301 311 310 303 303 300 292 282 282 286 285 281 279 276 274 271 272 268 267 264 262 262 262 260 258 258 256 251 246 237 232 229 230 229 226 223 222 225 226 224 228 231 233 232 230 223 225 217 213 208 194 184 182 177 174 171 170 166 168 170 171 170 173 174 175 174 174 175 176 176 175 175
329 325 319 312 306 303 297 292 288 288 287 285 290 301 302 299 301 299 298 296 287 284 281 287 286 280 275 278 276 266 266 263 262 262 260 261 258 256 253 252 248 244 239 234 231 227 227 226 222 222 224 225 220 221 225 229 225 224 228 226 220 213 208 193 185 180 176 175 172 166 166 169 170 170 170 175 175 174 175 175 174 175 175 173 175
320 317 309 301 298 295 290 292 300 297 294 295 300 300 301 296 301 298 289 289 287 288 281 293 277 279 291 286 275 275 268 266 261 257 254 251 253 251 249 248 246 244 239 235 231 228 226 223 222 221 221 222 221 213 220 225 225 221 222 228 226 222 213 194 184 180 176 176 172 171 168 167 170 172 173 175 176 176 177 175 174 175 176 177 176
296 297 294 290 294 300 301 305 306 310 309 306 303 300 300 299 299 297 301 282 277 285 291 277 280 280 278 285 277 289 276 256 248 253 253 252 249 246 244 244 245 243 240 237 234 227 224 223 221 219 219 219 219 216 213 214 219 217 218 222 224 223 218 201 188 181 173 173 171 170 171 167 166 171 173 174 175 176 176 175 173 176 178 180 179
291 285 282 284 292 294 296 297 298 300 298 300 301 296 294 292 293 289 284 295 297 292 288 288 284 291 275 254 281 276 285 270 280 264 272 290 283 268 254 245 245 242 237 236 234 230 225 220 221 219 218 217 216 216 214 212 213 215 214 217 217 219 222 211 195 184 177 174 172 169 170 168 169 173 174 173 174 175 176 175 176 179 181 182 180
282 277 278 286 287 291 294 295 294 295 294 292 292 291 294 289 288 285 285 294 295 292 284 278 281 278 281 281 270 260 256 280 312 285 260 266 272 284 291 285 259 244 237 234 233 229 225 222 219 219 218 214 214 214 215 213 211 210 214 213 212 213 215 212 195 183 177 174 173 171 168 170 170 171 173 173 175 176 176 177 177 179 184 183 179
286 288 286 287 291 293 293 295 294 293 291 288 290 293 289 287 279 278 279 275 283 289 285 278 273 274 268 267 266 272 285 289 315 289 285 231 275 274 271 269 277 271 243 233 229 225 223 223 218 218 214 213 213 213 213 212 208 206 207 207 208 207 208 211 194 185 180 174 175 174 171 171 171 171 170 172 175 178 178 176 178 183 184 180 178
281 277 284 288 292 293 291 288 287 287 289 289 289 286 289 285 283 274 275 279 276 279 280 286 282 267 264 263 264 262 263 272 264 287 288 291 240 271 281 274 277 287 280 245 231 229 224 218 218 216 215 212 211 213 212 210 208 206 202 201 201 202 202 205 195 186 182 180 175 174 174 174 174 172 170 174 176 179 177 178 180 183 181 178 177
281 285 288 292 291 288 286 287 286 284 285 285 285 289 287 280 276 275 273 267 267 270 281 275 272 277 282 288 281 271 261 256 256 257 274 286 293 272 260 272 273 267 273 284 257 235 227 219 217 214 214 212 210 212 213 210 209 207 203 200 198 201 198 198 202 183 179 178 180 175 173 175 175 174 173 174 176 176 176 177 180 181 179 178 178
269 284 287 289 293 290 286 283 284 283 284 281 281 280 280 285 286 279 274 272 265 268 271 272 272 274 286 276 277 272 266 255 252 246 248 269 276 284 295 292 277 266 271 271 272 254 232 223 216 214 211 210 207 206 206 206 206 204 202 198 199 199 199 196 197 193 178 177 178 174 174 176 177 174 173 173 175 177 177 178 180 179 177 178 178
282 274 281 279 280 281 281 279 280 282 281 280 277 276 276 277 277 278 277 274 269 266 264 266 265 269 263 265 266 272 271 260 248 244 249 242 264 279 280 289 294 288 276 273 280 275 245 225 219 213 211 209 209 212 210 202 198 200 200 196 199 196 199 196 198 190 182 178 179 177 175 175 176 174 173 173 175 178 177 178 179 179 177 177 177
296 292 277 282 278 276 278 277 276 277 278 277 275 272 273 272 274 271 270 265 266 263 266 267 268 266 264 261 264 261 258 258 251 240 238 246 259 263 275 264 271 282 279 279 284 283 269 237 220 215 210 207 205 205 209 214 210 208 201 198 198 197 196 197 195 201 185 177 177 175 177 173 174 174 173 173 175 177 177 178 180 179 179 178 177
295 291 294 285 283 279 274 276 275 272 268 269 269 269 270 271 270 272 270 268 265 266 263 262 260 256 252 256 260 261 261 256 253 249 241 248 252 266 271 284 278 267 279 285 283 282 277 254 229 215 209 206 201 196 200 207 208 204 199 196 197 197 198 198 199 189 185 182 176 173 172 174 173 171 171 172 174 176 177 179 179 179 179 179 178
300 297 293 294 290 288 285 278 275 266 271 268 267 265 266 266 270 269 264 266 264 262 263 257 259 255 260 260 272 274 266 261 254 248 245 248 249 265 259 265 272 278 271 277 282 284 276 266 234 221 211 212 208 201 195 195 201 193 188 194 194 195 198 200 204 197 187 180 176 173 171 170 171 170 169 170 174 175 177 179 180 179 179 180 179
301 296 296 293 288 279 281 278 272 271 267 268 266 265 265 267 269 271 269 267 267 263 261 261 258 258 260 263 260 261 263 260 254 248 247 241 243 251 266 264 258 271 276 271 272 281 280 261 239 221 213 209 207 203 200 199 198 194 191 188 193 195 197 198 193 206 200 177 172 172 170 168 168 168 167 169 173 174 177 180 179 179 178 179 178
297 296 297 294 289 287 281 278 281 281 276 269 272 270 269 271 270 270 268 264 267 268 267 269 266 263 263 258 257 255 256 255 250 245 241 242 239 247 252 269 269 261 268 263 269 258 269 276 243 222 212 206 204 200 198 198 196 184 188 190 193 191 194 187 186 177 195 190 172 167 167 165 166 168 166 168 171 175 175 178 180 178 179 179 177
291 293 292 294 293 292 290 283 281 277 275 272 269 270 269 269 269 264 266 266 264 259 260 256 256 259 263 272 280 275 269 261 251 243 241 240 238 243 244 247 263 273 266 269 260 266 263 268 250 226 209 204 199 197 195 190 192 178 181 189 185 187 178 178 175 179 176 182 174 165 163 164 164 166 164 164 167 171 174 176 179 178 177 179 176
289 293 293 290 288 290 291 291 287 278 277 274 270 268 270 269 269 269 267 262 260 258 254 253 259 263 261 261 264 268 268 266 256 237 235 235 238 241 237 242 243 255 268 268 268 260 273 261 242 221 211 205 198 194 189 188 176 171 184 182 179 178 173 167 165 165 179 179 173 164 164 166 161 163 163 162 167 170 172 175 176 175 175 176 176
290 291 293 293 293 291 288 285 287 284 278 276 273 271 270 270 268 265 264 264 264 262 262 264 262 262 262 261 259 262 260 258 252 240 231 231 234 237 240 238 238 246 253 260 269 253 264 279 265 228 202 205 198 192 190 188 176 173 182 180 175 175 167 160 156 156 160 161 170 170 165 164 160 161 162 162 165 169 172 172 173 174 172 174 178
292 293 292 292 293 293 291 289 289 292 292 285 281 275 270 273 272 272 264 259 261 263 260 257 259 257 258 256 253 257 259 258 251 238 230 228 231 233 241 239 237 237 245 246 262 266 227 268 276 271 210 192 192 190 189 186 174 176 179 179 175 171 165 160 157 157 159 159 161 169 175 166 159 161 160 161 164 168 170 170 170 171 172 173 176
289 288 290 293 295 296 294 293 294 295 294 293 293 286 280 270 271 273 274 267 263 260 260 250 253 251 251 252 254 260 261 259 252 239 232 228 228 234 238 238 237 235 238 241 243 263 250 244 272 287 247 190 179 179 183 179 175 177 176 177 168 162 162 160 159 158 157 158 158 162 166 166 161 161 158 160 163 166 167 167 169 170 171 174 175
292 291 293 294 296 297 298 296 295 296 294 293 292 286 284 281 278 276 275 271 269 268 266 264 256 248 252 257 258 258 261 261 256 241 232 230 230 236 240 240 237 234 230 234 243 254 268 248 262 268 257 205 177 176 175 171 176 182 171 169 163 164 164 163 158 156 156 156 156 158 162 163 162 161 158 162 164 165 167 167 168 169 171 173 174
292 294 295 298 298 298 295 293 295 295 291 290 290 286 282 281 279 278 276 271 269 268 265 262 256 255 255 256 253 250 249 253 251 242 231 228 230 237 244 242 241 237 223 232 238 247 260 267 259 260 250 216 177 179 169 167 172 178 182 167 165 165 163 162 158 158 156 156 156 160 161 161 162 162 160 164 165 165 167 167 166 167 169 172 174
298 295 298 297 298 298 296 296 294 293 293 288 286 284 283 282 280 279 280 280 273 268 264 260 259 258 258 258 263 268 263 251 244 237 231 229 229 239 246 249 249 240 231 227 239 242 249 259 256 260 244 221 183 173 169 168 168 166 149 174 163 164 158 163 159 159 157 154 155 161 162 162 164 163 164 165 166 164 165 166 165 166 170 173 173
300 298 299 300 296 297 294 291 293 290 291 288 284 282 281 280 279 277 276 275 279 279 275 262 253 252 250 252 253 258 266 261 244 232 225 225 230 238 247 251 252 251 239 235 235 243 246 255 257 249 239 221 190 167 166 166 166 161 154 162 161 159 160 160 159 159 158 155 156 159 162 166 166 164 164 165 164 164 164 165 166 168 171 172 171
298 306 302 296 296 294 292 292 293 291 288 287 284 281 279 277 278 276 274 273 271 270 271 274 277 274 264 257 259 261 267 270 247 230 220 223 228 237 246 250 255 253 247 236 237 239 246 247 255 246 229 213 193 168 164 161 159 156 154 157 159 147 156 153 152 158 156 155 156 157 159 163 163 162 163 163 163 163 164 166 168 168 169 169 168
307 298 296 298 297 298 293 292 293 291 286 283 281 280 278 277 275 273 271 269 270 269 270 271 268 262 264 269 268 263 262 267 257 232 223 225 230 237 243 247 253 260 257 239 230 235 236 244 243 243 233 196 173 175 169 160 156 152 151 151 158 146 147 146 147 150 150 153 155 155 156 159 161 162 164 164 163 164 165 167 167 166 167 166 165
299 303 303 300 299 291 290 292 288 289 288 281 278 277 277 275 273 272 270 269 269 270 269 267 262 260 261 262 262 262 262 264 267 250 232 230 230 238 243 252 256 259 264 261 248 238 240 245 244 233 221 215 169 167 178 168 152 152 151 145 153 144 140 146 144 149 150 151 156 157 160 162 163 163 164 164 163 163 164 164 165 165 166 165 164
307 302 296 296 291 291 291 289 289 284 283 283 279 275 271 270 270 268 267 267 267 269 268 264 262 261 257 253 253 254 254 257 261 258 242 236 231 239 242 249 262 273 277 274 261 250 249 247 243 227 201 172 180 159 157 172 153 155 156 152 152 147 139 149 154 151 153 150 151 153 151 147 151 156 160 162 164 164 165 165 165 165 165 165 165
299 295 298 297 295 294 288 289 286 283 282 278 276 273 273 270 267 266 265 262 260 265 267 261 255 250 249 252 252 250 252 254 257 259 253 240 232 241 243 240 252 257 264 266 272 264 253 251 243 221 199 168 164 161 157 167 159 154 159 151 150 153 149 148 155 154 153 151 153 153 158 158 157 161 165 170 169 168 168 168 167 166 167 168 168
299 296 288 290 294 292 295 296 293 289 282 280 275 275 276 274 272 269 264 259 255 257 268 275 266 249 245 248 251 252 252 251 251 252 251 246 242 237 245 245 251 258 257 262 258 259 259 249 235 209 198 167 161 165 162 177 162 149 149 150 145 145 137 138 139 150 150 144 146 153 157 159 155 158 163 165 174 168 170 170 172 168 169 169 170
301 298 300 300 301 303 301 301 300 296 291 283 281 281 282 281 280 276 271 266 260 260 265 270 276 277 265 251 251 253 252 253 253 251 244 245 244 244 246 245 243 241 258 258 257 251 262 258 233 204 193 164 162 169 169 168 167 147 146 144 141 144 148 151 152 135 165 154 156 156 157 163 159 166 170 170 172 172 170 176 167 166 169 170 169
305 303 303 303 305 304 302 300 299 297 295 294 293 289 286 285 283 279 275 270 263 257 256 262 266 267 271 274 267 258 255 255 258 257 257 255 254 253 253 253 251 250 247 248 256 258 251 263 245 207 188 168 166 166 164 157 159 149 148 145 150 151 152 155 154 161 170 160 154 157 159 162 167 168 171 172 172 177 170 166 166 168 171 171 170
310 311 310 309 308 308 304 302 299 296 294 294 296 294 291 288 287 283 276 271 265 261 261 263 263 266 265 264 270 266 258 259 259 259 256 255 255 252 251 253 254 254 257 253 247 244 254 260 267 222 191 169 165 168 159 161 162 155 153 153 155 156 158 159 164 158 165 161 152 160 169 178 172 171 176 174 166 169 167 166 168 171 171 172 170
313 310 309 308 308 309 308 304 301 297 294 293 296 298 297 293 290 290 276 269 262 255 257 258 261 265 264 264 263 261 256 255 259 264 259 251 248 247 247 251 254 255 253 256 255 248 242 244 258 248 207 174 168 165 165 162 162 161 160 160 160 158 163 167 163 157 160 162 164 159 167 181 198 169 176 164 156 164 170 173 168 169 171 174 173
314 314 315 313 310 308 305 302 301 298 294 295 299 301 301 298 295 293 281 266 264 262 257 246 249 257 259 261 261 260 256 252 253 256 255 250 249 249 250 254 257 260 259 257 257 251 241 239 243 253 222 188 170 162 162 169 169 169 167 165 164 158 136 92 68 113 148 166 157 157 170 175 183 170 169 148 151 160 169 173 170 169 174 175 174
309 308 305 301 301 303 301 301 300 298 295 299 302 303 303 302 303 300 282 259 257 258 259 261 253 254 257 259 261 258 252 250 251 252 251 252 249 248 252 256 260 261 258 255 260 258 252 245 240 238 227 190 175 163 164 168 168 149 110 85 96 115 126 137 142 151 160 176 168 169 166 163 180 169 155 143 145 156 166 173 179 175 175 175 177
310 309 305 303 300 300 302 303 305 299 295 300 307 308 307 307 310 308 300 262 246 250 256 260 262 258 256 255 258 266 266 256 245 244 246 249 252 251 251 256 258 261 266 268 266 261 254 247 241 239 233 193 173 170 165 162 149 136 125 130 146 150 147 146 150 158 168 165 196 167 144 155 181 157 138 150 159 162 172 178 180 187 180 179 176
311 309 306 303 300 299 301 304 304 302 302 304 306 307 309 313 317 313 303 273 237 243 251 248 253 257 254 255 254 249 252 255 260 262 259 253 247 247 248 252 258 263 268 272 279 270 252 242 234 232 214 179 166 170 163 150 150 152 153 160 162 155 154 156 159 167 161 170 175 146 138 160 143 136 124 95 79 80 159 159 166 195 191 179 180
302 302 303 303 302 302 301 303 306 306 296 296 301 308 314 316 316 312 310 293 251 242 243 251 254 255 254 252 253 257 254 249 250 253 253 253 253 247 246 248 254 261 265 285 286 282 260 234 228 226 209 176 159 160 165 159 158 162 166 163 160 161 162 163 157 147 148 182 188 169 150 152 149 163 144 136 152 304 58 142 167 175 191 188 182